系统集成论坛

 找回密码
 注册通行证

QQ登录

只需一步,快速开始

CRM软件
路由器交换机防火墙系统集成服务系统集成商名录
收藏本版 |订阅

解决方案 今日: 12 |主题: 1113|排名: 7 

作者 回复/查看 最后发表
基于TIDA-00421采用 OV10640、DS90UB913A 并实现同轴供电的汽车类 1.3M 摄像头模块... iczoom188 2018-12-6 034 iczoom188 2018-12-6 17:42
基于TIDA-00262用于同轴无压缩数字视频且经过优化的汽车类百万像素摄像机模块设计 iczoom188 2018-12-6 038 iczoom188 2018-12-6 17:42
基于ATL431的2.5V 低静态电流可调节精密并联稳压器 iczoom188 2018-12-6 045 iczoom188 2018-12-6 17:41
基于 TPS560430的具有高效睡眠模式的 SIMPLE SWITCHER® 36V 600mA 降压稳压器 iczoom188 2018-12-6 036 iczoom188 2018-12-6 17:41
基于TIDA-01003的采用 YUV422、FPD-Link III 和 4-36V 同轴电缆供电技术的汽车 1MP... iczoom188 2018-12-6 035 iczoom188 2018-12-6 17:40
[国产PLC]耐特生产PLC在音乐喷泉系统中的硬件配置 ntplc2017 2018-12-6 032 ntplc2017 2018-12-6 11:53
[国产PLC]耐特PLC在现代农业温室大棚系统中是怎么运用的设备原理 ntplc2017 2018-12-5 054 ntplc2017 2018-12-5 13:19
[国产PLC]耐特生产PLC在污水处理自动控制系统中是怎么运用的设备原理 ntplc2017 2018-11-29 071 ntplc2017 2018-11-29 14:38
基于UCC29950 CCM PFC 和·LLC Combo 控制器 iczoom188 2018-11-27 0132 iczoom188 2018-11-27 17:03
基于UCC28740的具有光电耦合器反馈的恒压、恒流反激控制器 iczoom188 2018-11-27 0116 iczoom188 2018-11-27 17:03
基于UCC28722Constant-Voltage, Constant-Current Controller with Primary-Side R... iczoom188 2018-11-27 096 iczoom188 2018-11-27 17:02
基于UCC28710的具有一次侧稳压功能的恒压、恒流控制器 iczoom188 2018-11-27 071 iczoom188 2018-11-27 17:02
基于UCC28610的25-90W Cascoded Flyback Power Supply Controller iczoom188 2018-11-27 0104 iczoom188 2018-11-27 17:02
基于UCC28600的准谐振反向控制器 iczoom188 2018-11-27 088 iczoom188 2018-11-27 17:01
基于UCC28180的8 引脚持续传导模式 (CCM) PFC 控制器,UCC28180 iczoom188 2018-11-27 073 iczoom188 2018-11-27 17:01
基于UCC25600的8 引脚高性能谐振模式 LLC 控制器 iczoom188 2018-11-27 084 iczoom188 2018-11-27 17:01
基于UCC28C45的BiCMOS 低功耗电流模式 PWM 控制器 iczoom188 2018-11-27 087 iczoom188 2018-11-27 17:00
基于UCC28C42的BiCMOS 低电流 8 引脚 PWM 电流模式控制器 iczoom188 2018-11-27 087 iczoom188 2018-11-27 17:00
基于LM5032的高电压双路交错电流模式控制器 iczoom188 2018-11-27 081 iczoom188 2018-11-27 17:00
基于LM5023的AC-DC 准谐振电流模式 PWM 控制器 iczoom188 2018-11-27 083 iczoom188 2018-11-27 17:00
[国产PLC]耐特生产PLC在燃烧器锅炉控制系统产品运用时可提高工作效率 ntplc2017 2018-11-27 069 ntplc2017 2018-11-27 14:51
[国产PLC]耐特生产PLC在自动化恒压供水系统中运用时可提高工作效率 ntplc2017 2018-11-26 046 ntplc2017 2018-11-26 10:41
[国产PLC]耐特生产PLC在自动化搬运系统中运用时怎样提高工作效率 ntplc2017 2018-11-22 068 ntplc2017 2018-11-22 10:01
基于TIDA-00473的具有隔离式多路输出的通用输入、10W 高效低成本电源 iczoom188 2018-11-21 072 iczoom188 2018-11-21 17:16
基于UCC256304支持低待机功耗且具有高压启动功能的宽输入电压 LLC 谐振控制器 iczoom188 2018-11-21 074 iczoom188 2018-11-21 17:15
基于UCC28950的具有同步整流的绿色环保相移全桥控制器 iczoom188 2018-11-21 085 iczoom188 2018-11-21 17:15
基于UCC28740的具有光电耦合器反馈的恒压、恒流反激控制器 iczoom188 2018-11-21 0103 iczoom188 2018-11-21 17:14
基于UCC28730的具有 PSR 和唤醒监控功能的恒压、恒流控制器 iczoom188 2018-11-21 079 iczoom188 2018-11-21 17:14
基于UCC28722的Constant-Voltage, Constant-Current Controller with Primary-Side... iczoom188 2018-11-21 068 iczoom188 2018-11-21 17:13
基于UCC28630的具有初级侧稳压功能和峰值功率模式的高功率反激控制器 iczoom188 2018-11-21 055 iczoom188 2018-11-21 17:13
基于TL2845的电流模式 PWM 控制器 iczoom188 2018-11-21 057 iczoom188 2018-11-21 17:13
基于TIDA-00704的330W、效率高于 93% 的成本优化型 20V-32V 蓄电池组充电器参考设计 iczoom188 2018-11-21 056 iczoom188 2018-11-21 17:12
基于TIDA-00355的用于 36V 电动工具的具有 PFC 和 LLC 的 230V、400W 高效电池充电器 iczoom188 2018-11-21 053 iczoom188 2018-11-21 17:12
基于TIDA-00200的面向电池充电应用的 120V AC 输入·200W 交错反激式 iczoom188 2018-11-21 040 iczoom188 2018-11-21 17:12
基于PMP30047的由 170V 至 270V 交流电压供电的 16V 至 32V@2A 双元件铅酸电池充电... iczoom188 2018-11-21 042 iczoom188 2018-11-21 17:11
下一页 »

快速发帖

还可输入 80 个字符
您需要登录后才可以发帖 登录 | 注册通行证

本版积分规则

联系我们| 手机版|系统集成论坛 ( 京ICP备11008917号 )

GMT+8, 2018-12-18 20:38 , Processed in 0.160550 second(s), 13 queries .

系统集成论坛

BBS.XTJC.COM

返回顶部 返回版块